Powrót do katalogu

HAWK-3B

AktywnyNaukaPO
NORAD 48931·PAYLOAD·🇺🇸 United States

Wystrzelony Jun 30, 2021 z Cape Canaveral Space Force Station

Loading…

Następne Przeloty (najbliższe 24 godziny)

TLE

ŚwieżeSource: Space-Track

Epoka: Sep 14, 2026, 08:47 UTC

1 48931U 21059BE  26257.36647962  .00051561  00000-0  31252-3 0  9991
2 48931  97.6553 103.0090 0003349   9.8927 350.2404 15.77414495291871

Śledź HAWK-3B w czasie rzeczywistym z AllMySat

Download on the App Store